This demonstration page uses our WeatherBlox Daily Observations layout. Learn more.

Left ArrowRight Arrow

Hourly Observations for September 10, 2021

Temp ( °F °C ) Dew Point ( °F °C ) Humidity (%) Winds ( mph kmh ) Pressure ( in mb ) Visibility ( mi km ) Precip ( " mm )
12:15 am 00:15 Clear 64 17.6 59 15 85 85 N N/A 29.91 1013 10 16 N/A
12:35 am 00:35 Clear 64 17.7 59 15 84 84 SSE 5 7 29.91 1013 10 16 N/A
12:55 am 00:55 Clear 64 17.6 59 15 85 85 SSE 3 6 29.90 1012 10 16 N/A
1:15 am 01:15 Clear 64 17.6 59 15 85 85 N N/A 29.90 1012 10 16 N/A
1:35 am 01:35 Clear 64 17.6 59 15 85 85 SSE 5 7 29.89 1012 10 16 N/A
1:55 am 01:55 Clear 64 17.6 59 15 85 85 N N/A 29.88 1012 10 16 N/A
2:15 am 02:15 Clear 61 16.2 58 14.3 89 89 NNE 3 6 29.90 1012 10 16 N/A
2:35 am 02:35 Clear 61 16 59 14.8 93 93 N N/A 29.90 1013 10 16 N/A
2:55 am 02:55 Clear 60 15.7 58 14.4 92 92 N N/A 29.90 1013 10 16 N/A
3:15 am 03:15 Clear 60 15.5 58 14.5 94 94 N N/A 29.91 1013 10 16 N/A
3:35 am 03:35 Clear 59 15.2 58 14.4 95 95 N N/A 29.91 1013 10 16 N/A
3:55 am 03:55 Clear 60 15.3 58 14.3 94 94 N N/A 29.91 1013 10 16 N/A
4:15 am 04:15 Clear 59 15 57 14 94 94 N N/A 29.91 1013 10 16 N/A
4:35 am 04:35 Clear 58 14.6 57 13.8 95 95 N N/A 29.91 1013 10 16 N/A
4:55 am 04:55 Clear 58 14.6 57 14 96 96 N N/A 29.91 1013 10 16 N/A
5:15 am 05:15 Clear 58 14.3 56 13.6 96 96 N N/A 29.91 1013 10 16 N/A
5:35 am 05:35 Clear 58 14.4 57 13.8 96 96 WNW 3 6 29.91 1013 10 16 N/A
5:55 am 05:55 Clear 58 14.5 57 13.9 96 96 N N/A 29.92 1013 10 16 N/A
6:15 am 06:15 Clear 58 14.2 56 13.6 96 96 N N/A 29.93 1013 10 16 N/A
6:35 am 06:35 Clear 57 14.1 56 13.5 96 96 N N/A 29.94 1014 10 16 N/A
6:55 am 06:55 Clear 57 13.8 56 13.2 96 96 N N/A 29.94 1014 10 16 N/A
7:15 am 07:15 Sunny 56 13.6 55 13 96 96 N N/A 29.94 1014 10 16 N/A
7:35 am 07:35 Sunny 56 13.6 55 13 96 96 N N/A 29.93 1014 7 11 N/A
7:50 am 07:50 Sunny 56 13.6 56 13.1 97 97 N N/A 29.94 1014 7 11 N/A
8:15 am 08:15 Sunny 57 14 56 13.3 96 96 N N/A 29.94 1014 7 11 N/A
8:35 am 08:35 Sunny 59 15 58 14.3 96 96 N N/A 29.93 1014 10 16 N/A
8:55 am 08:55 Sunny 61 15.9 58 14.7 93 93 N N/A 29.93 1014 10 16 N/A
9:15 am 09:15 Sunny 63 17.2 60 15.8 92 92 N N/A 29.91 1013 10 16 N/A
9:35 am 09:35 Sunny 64 18 61 16.2 89 89 N N/A 29.91 1013 10 16 N/A
9:55 am 09:55 Sunny 67 19.2 62 16.9 87 87 N N/A 29.90 1013 10 16 N/A
10:15 am 10:15 Sunny 69 20.3 63 17.2 82 82 N N/A 29.90 1013 10 16 N/A
10:35 am 10:35 Sunny 70 21.2 64 17.6 80 80 N N/A 29.90 1012 10 16 N/A
10:55 am 10:55 Sunny 72 22.3 63 17.3 73 73 N N/A 29.89 1012 10 16 N/A
11:15 am 11:15 Sunny 74 23.4 64 18 72 72 N N/A 29.88 1012 10 16 N/A
11:35 am 11:35 Sunny 76 24.3 64 17.6 66 66 N N/A 29.87 1012 10 16 N/A
11:55 am 11:55 Sunny 77 25 64 17.6 64 64 N N/A 29.87 1011 10 16 N/A
12:15 pm 12:15 Sunny 78 25.6 64 17.7 62 62 N N/A 29.86 1011 10 16 N/A
12:35 pm 12:35 Sunny 79 26.3 64 18 60 60 N N/A 29.85 1011 10 16 N/A
12:55 pm 12:55 Sunny 81 27.1 65 18.2 58 58 E 3 6 29.83 1010 10 16 N/A
1:15 pm 13:15 Sunny 82 27.7 65 18.6 58 58 SE 5 7 29.83 1010 10 16 N/A
1:35 pm 13:35 Sunny 83 28.1 67 19.2 58 58 SSE 3 6 29.81 1010 10 16 N/A
1:55 pm 13:55 Sunny 84 28.8 67 19.2 56 56 SE 5 7 29.81 1009 10 16 N/A
2:15 pm 14:15 Sunny 85 29.2 68 20.2 58 58 SE 5 7 29.80 1009 10 16 N/A
2:35 pm 14:35 Sunny 85 29.5 68 19.9 56 56 S 6 9 29.79 1009 10 16 N/A
2:55 pm 14:55 Sunny 86 30.2 67 19.7 53 53 SE 6 9 29.78 1008 10 16 N/A
3:15 pm 15:15 Sunny 86 30.2 68 19.9 54 54 SSE 5 7 29.78 1008 10 16 N/A
3:35 pm 15:35 Sunny 87 30.7 69 20.5 55 55 SSE 5 7 29.76 1008 10 16 N/A
3:55 pm 15:55 Sunny 88 30.9 69 20.7 55 55 ESE 3 6 29.76 1008 10 16 N/A
4:15 pm 16:15 Sunny 89 31.4 69 20.3 52 52 SE 5 7 29.76 1008 10 16 N/A
4:35 pm 16:35 Sunny 89 31.6 69 20.3 51 51 SSE 5 7 29.76 1008 10 16 N/A
4:55 pm 16:55 Sunny 89 31.6 68 20.2 51 51 SSE 3 6 29.76 1008 10 16 N/A
5:15 pm 17:15 Sunny 89 31.6 66 19.1 47 47 SSE 5 7 29.75 1007 10 16 N/A
5:35 pm 17:35 Sunny 89 31.6 67 19.5 49 49 SE 6 9 29.75 1007 10 16 N/A
5:55 pm 17:55 Sunny 88 31.3 70 21.2 55 55 ESE 6 9 29.75 1007 10 16 N/A
6:15 pm 18:15 Sunny 87 30.6 68 20 53 53 ESE 5 7 29.75 1008 10 16 N/A
6:35 pm 18:35 Sunny 86 29.9 70 21.2 60 60 ESE 6 9 29.76 1008 10 16 N/A
6:55 pm 18:55 Sunny 84 29.1 71 21.5 64 64 ESE 6 9 29.76 1008 10 16 N/A
7:15 pm 19:15 Sunny 83 28.1 70 21.3 67 67 SE 7 11 29.76 1008 10 16 N/A
7:35 pm 19:35 Sunny 80 26.7 71 21.5 73 73 ESE 8 13 29.77 1008 10 16 N/A
7:55 pm 19:55 Clear 78 25.6 71 21.6 79 79 ESE 7 11 29.77 1008 10 16 N/A
8:15 pm 20:15 Clear 77 24.8 71 21.6 82 82 SE 8 13 29.78 1008 10 16 N/A
8:35 pm 20:35 Clear 75 24.1 70 21.3 84 84 SE 8 13 29.79 1009 10 16 N/A
8:55 pm 20:55 Clear 74 23.5 70 21 86 86 SE 7 11 29.80 1009 10 16 N/A
9:15 pm 21:15 Clear 74 23.6 70 21 85 85 SSE 8 13 29.80 1009 10 16 N/A
9:35 pm 21:35 Clear 74 23.5 69 20.6 84 84 SSE 7 11 29.80 1009 10 16 N/A
9:55 pm 21:55 Clear 75 23.7 69 20.3 81 81 SSE 6 9 29.80 1009 10 16 N/A
10:15 pm 22:15 Clear 74 23.5 68 20.2 82 82 SSE 7 11 29.80 1009 10 16 N/A
10:35 pm 22:35 Clear 74 23.6 68 20 80 80 SSE 7 11 29.80 1009 10 16 N/A
10:55 pm 22:55 Clear 73 23 68 19.8 82 82 S 6 9 29.80 1009 10 16 N/A
11:15 pm 23:15 Clear 73 22.5 67 19.7 84 84 S 6 9 29.82 1010 10 16 N/A
11:35 pm 23:35 Clear 71 21.8 67 19.5 87 87 SSE 3 6 29.81 1010 10 16 N/A
11:55 pm 23:55 Clear 71 21.6 67 19.5 88 88 S 5 7 29.81 1010 10 16 N/A

Powered by AerisWeather